,,,PA_Meas_PMT16A,,PR_Meas_QMR101_102,,RH_Meas_QMH101,,SR_Meas_QMS101,,TA_Meas_QMH101,,GenWind,,GenWind,
date,time,status,PA,status,PR,status,RH,status,SR,status,TA,status,DirAvg,status,SpdAvg,
2009-04-04, 00:00:04,VALID,1000.2,VALID,0,VALID,93.5086,VALID,0,VALID,24.0738,VALID,110,VALID,0.363281,
2009-04-04, 00:01:04,VALID,1000.19,VALID,0,VALID,93.5163,VALID,0,VALID,24.0933,VALID,110,VALID,0.336328,
2009-04-04, 00:02:04,VALID,1000.15,VALID,0,VALID,93.5163,VALID,0,VALID,24.0933,VALID,110,VALID,0.161328,
2009-04-04, 00:03:04,VALID,1000.12,VALID,0,VALID,93.5697,VALID,0,VALID,24.0933,VALID,110,VALID,0.160156,
2009-04-04, 00:04:04,VALID,1000.1,VALID,0,VALID,93.5315,VALID,0,VALID,24.1128,VALID,110,VALID,0.00351562,
2009-04-04, 00:05:04,VALID,1000.08,VALID,0,VALID,93.4934,VALID,0,VALID,24.1324,VALID,110,VALID,0,
2009-04-04, 00:06:05,VALID,1000.13,VALID,0,VALID,93.3484,VALID,0,VALID,24.1128,VALID,110,VALID,0.14375,
2009-04-04, 00:07:05,VALID,1000.11,VALID,0,VALID,93.3484,VALID,0,VALID,24.072,VALID,36,VALID,0.541406,
2009-04-04, 00:08:05,VALID,1000.15,VALID,0,VALID,93.3255,VALID,0,VALID,24.072,VALID,16,VALID,0.758984,
2009-04-04, 00:09:05,VALID,1000.14,VALID,0,VALID,93.2645,VALID,0,VALID,24.0525,VALID,14,VALID,0.757813,
2009-04-04, 00:10:05,VALID,1000.14,VALID,0,VALID,93.2645,VALID,0,VALID,24.0134,VALID,14,VALID,0.851172,
2009-04-04, 00:11:05,VALID,1000.15,VALID,0,VALID,93.1195,VALID,0,VALID,23.9531,VALID,14,VALID,0.871484,
2009-04-04, 00:12:05,VALID,1000.17,VALID,0,VALID,93.2416,VALID,0.112286,VALID,23.9354,VALID,26,VALID,0.910156,
2009-04-04, 00:13:05,VALID,1000.19,VALID,0,VALID,93.4705,VALID,0,VALID,23.9354,VALID,26,VALID,0.834375,
2009-04-04, 00:14:05,VALID,1000.19,VALID,0,VALID,93.44,VALID,0,VALID,23.9549,VALID,26,VALID,0.746484,
2009-04-04, 00:15:05,VALID,1000.15,VALID,0,VALID,93.2797,VALID,0,VALID,23.9354,VALID,26,VALID,0.954687,
2009-04-04, 00:16:05,VALID,1000.1,VALID,0,VALID,93.4171,VALID,0.112286,VALID,23.9159,VALID,19,VALID,0.936719,
2009-04-04, 00:17:05,VALID,1000.1,VALID,0,VALID,93.562,VALID,0.112286,VALID,23.9531,VALID,360,VALID,0.960156,
2009-04-04, 00:18:05,VALID,1000.08,VALID,0,VALID,93.4247,VALID,0,VALID,23.9336,VALID,344,VALID,0.753125,
2009-04-04, 00:19:05,VALID,1000.06,VALID,0,VALID,93.5163,VALID,0,VALID,23.9744,VALID,344,VALID,0.717578,
2009-04-04, 00:20:05,VALID,1000.07,VALID,0,VALID,93.4323,VALID,0,VALID,23.9744,VALID,347,VALID,0.628906,
2009-04-04, 00:21:05,VALID,1000.07,VALID,0,VALID,93.4018,VALID,0,VALID,23.9744,VALID,347,VALID,0.416797,
2009-04-04, 00:22:05,VALID,1000.07,VALID,0,VALID,93.4247,VALID,0,VALID,23.9567,VALID,347,VALID,0.470313,
2009-04-04, 00:23:05,VALID,1000.09,VALID,0,VALID,93.5315,VALID,0,VALID,23.9762,VALID,347,VALID,0.473828,
2009-04-04, 00:24:05,VALID,1000.05,VALID,0,VALID,93.5849,VALID,0,VALID,23.9957,VALID,347,VALID,0.292188,
2009-04-04, 00:25:05,VALID,1000.06,VALID,0,VALID,93.501,VALID,0,VALID,23.9744,VALID,347,VALID,0.00351562,
2009-04-04, 00:26:05,VALID,1000.05,VALID,0,VALID,93.5315,VALID,0,VALID,23.9957,VALID,347,VALID,0,
2009-04-04, 00:27:05,VALID,1000.02,VALID,0,VALID,93.5926,VALID,0,VALID,23.9957,VALID,347,VALID,0,
2009-04-04, 00:28:05,VALID,1000.02,VALID,0,VALID,93.6383,VALID,0,VALID,23.9939,VALID,347,VALID,0.186719,
2009-04-04, 00:29:05,VALID,1000.01,VALID,0,VALID,93.5697,VALID,0,VALID,23.9957,VALID,347,VALID,0,
2009-04-04, 00:30:05,VALID,1000.02,VALID,0,VALID,93.646,VALID,0,VALID,24.0153,VALID,347,VALID,0.185937,
2009-04-04, 00:31:05,VALID,999.979,VALID,0,VALID,93.5773,VALID,0,VALID,23.9957,VALID,347,VALID,0.247266,
2009-04-04, 00:32:05,VALID,999.974,VALID,0,VALID,93.6231,VALID,0,VALID,23.9957,VALID,347,VALID,0.0703125,
2009-04-04, 00:33:05,VALID,999.977,VALID,0,VALID,93.5773,VALID,0,VALID,23.9957,VALID,347,VALID,0.0375,
2009-04-04, 00:34:05,VALID,999.977,VALID,0,VALID,93.5773,VALID,0,VALID,23.9957,VALID,347,VALID,0,
2009-04-04, 00:35:05,VALID,999.975,VALID,0,VALID,93.562,VALID,0,VALID,23.9549,VALID,347,VALID,0.000390625,
2009-04-04, 00:36:05,VALID,999.956,VALID,0,VALID,93.3942,VALID,0,VALID,23.9567,VALID,35,VALID,1.07305,
2009-04-04, 00:37:05,VALID,999.945,VALID,0,VALID,93.0737,VALID,0,VALID,23.9372,VALID,157,VALID,1.28164,
2009-04-04, 00:38:05,VALID,999.921,VALID,0,VALID,92.6846,VALID,0,VALID,23.9957,VALID,154,VALID,1.07031,
2009-04-04, 00:39:05,VALID,999.927,VALID,0,VALID,92.265,VALID,0,VALID,24.0543,VALID,153,VALID,0.940625,
2009-04-04, 00:40:05,VALID,999.895,VALID,0,VALID,92.0132,VALID,0,VALID,24.1324,VALID,155,VALID,0.659375,
2009-04-04, 00:41:05,VALID,999.874,VALID,0,VALID,91.8072,VALID,0,VALID,24.1714,VALID,158,VALID,0.8125,
2009-04-04, 00:42:05,VALID,999.858,VALID,0,VALID,91.5249,VALID,0,VALID,24.2104,VALID,173,VALID,0.722266,
2009-04-04, 00:43:05,VALID,999.845,VALID,0,VALID,91.2579,VALID,0,VALID,24.2299,VALID,176,VALID,1.00547,
2009-04-04, 00:44:05,VALID,999.803,VALID,0,VALID,90.9527,VALID,0,VALID,24.2476,VALID,169,VALID,1.1375,
2009-04-04, 00:45:05,VALID,999.787,VALID,0,VALID,90.617,VALID,0,VALID,24.3275,VALID,173,VALID,0.957422,
2009-04-04, 00:46:05,VALID,999.768,VALID,0,VALID,90.266,VALID,0,VALID,24.3452,VALID,171,VALID,0.727344,
2009-04-04, 00:47:05,VALID,999.721,VALID,0,VALID,90.0371,VALID,0,VALID,24.3842,VALID,190,VALID,0.594141,
2009-04-04, 00:48:05,VALID,999.68,VALID,0,VALID,89.854,VALID,0,VALID,24.4037,VALID,191,VALID,0.488281,
2009-04-04, 00:49:05,VALID,999.678,VALID,0,VALID,89.7014,VALID,0,VALID,24.4428,VALID,238,VALID,0.392188,
2009-04-04, 00:50:05,VALID,999.625,VALID,0,VALID,89.7549,VALID,0,VALID,24.4428,VALID,291,VALID,0.735937,
2009-04-04, 00:51:05,VALID,999.592,VALID,0,VALID,89.9685,VALID,0,VALID,24.4056,VALID,305,VALID,0.683594,
2009-04-04, 00:52:05,VALID,999.561,VALID,0,VALID,90.2889,VALID,0,VALID,24.3257,VALID,309,VALID,0.865625,
2009-04-04, 00:53:05,VALID,999.575,VALID,0,VALID,90.7467,VALID,0,VALID,24.2281,VALID,313,VALID,0.772266,
2009-04-04, 00:54:05,VALID,999.519,VALID,0,VALID,91.3266,VALID,0.112286,VALID,24.1696,VALID,309,VALID,0.933203,
2009-04-04, 00:55:05,VALID,999.503,VALID,0,VALID,91.7004,VALID,0,VALID,24.111,VALID,312,VALID,0.727344,
2009-04-04, 00:56:05,VALID,999.504,VALID,0,VALID,91.9217,VALID,0,VALID,24.072,VALID,306,VALID,0.669531,
2009-04-04, 00:57:05,VALID,999.477,VALID,0,VALID,92.1277,VALID,0,VALID,24.0329,VALID,306,VALID,0.547656,
2009-04-04, 00:58:05,VALID,999.461,VALID,0,VALID,92.2726,VALID,0,VALID,24.0134,VALID,306,VALID,0.339844,
2009-04-04, 00:59:05,VALID,999.452,VALID,0,VALID,92.471,VALID,0.112286,VALID,23.9744,VALID,306,VALID,0.53125,
2009-04-04, 01:00:05,VALID,999.443,VALID,0,VALID,92.5854,VALID,0,VALID,23.914,VALID,306,VALID,0.352344,
2009-04-04, 01:01:05,VALID,999.456,VALID,0,VALID,92.6236,VALID,0,VALID,23.9159,VALID,306,VALID,0.488672,
2009-04-04, 01:02:05,VALID,999.443,VALID,0,VALID,92.5626,VALID,0,VALID,23.8768,VALID,306,VALID,0.394531,
2009-04-04, 01:03:05,VALID,999.464,VALID,0,VALID,92.5626,VALID,0,VALID,23.8378,VALID,306,VALID,0.354688,
2009-04-04, 01:04:05,VALID,999.401,VALID,0,VALID,92.7838,VALID,0.112286,VALID,23.7793,VALID,306,VALID,0.199609,
2009-04-04, 01:05:05,VALID,999.428,VALID,0,VALID,92.944,VALID,0.112286,VALID,23.7384,VALID,306,VALID,0,
2009-04-04, 01:06:05,VALID,999.415,VALID,0,VALID,92.9898,VALID,0,VALID,23.7402,VALID,306,VALID,0,
2009-04-04, 01:07:05,VALID,999.428,VALID,0,VALID,93.1348,VALID,0,VALID,23.7225,VALID,306,VALID,0.105078,
2009-04-04, 01:08:05,VALID,999.437,VALID,0,VALID,93.3103,VALID,0,VALID,23.7225,VALID,306,VALID,0.290234,
2009-04-04, 01:09:05,VALID,999.408,VALID,0,VALID,93.3484,VALID,0,VALID,23.7012,VALID,306,VALID,0.180469,
2009-04-04, 01:10:05,VALID,999.402,VALID,0,VALID,93.3866,VALID,0,VALID,23.703,VALID,306,VALID,0.295312,
2009-04-04, 01:11:05,VALID,999.38,VALID,0,VALID,93.6307,VALID,0,VALID,23.703,VALID,61,VALID,0.657422,
2009-04-04, 01:12:05,VALID,999.393,VALID,0,VALID,93.2874,VALID,0,VALID,23.6835,VALID,59,VALID,1.13789,
2009-04-04, 01:13:05,VALID,999.406,VALID,0,VALID,93.15,VALID,0,VALID,23.6445,VALID,69,VALID,0.967969,
2009-04-04, 01:14:05,VALID,999.389,VALID,0,VALID,93.1348,VALID,0,VALID,23.625,VALID,81,VALID,0.911719,
2009-04-04, 01:15:05,VALID,999.366,VALID,0,VALID,93.2721,VALID,0,VALID,23.6036,VALID,82,VALID,0.646094,
2009-04-04, 01:16:05,VALID,999.391,VALID,0,VALID,93.2721,VALID,0,VALID,23.625,VALID,83,VALID,0.381641,
2009-04-04, 01:17:05,VALID,999.359,VALID,0,VALID,93.2721,VALID,0,VALID,23.6232,VALID,83,VALID,0.553125,
2009-04-04, 01:18:05,VALID,999.325,VALID,0,VALID,93.3331,VALID,0,VALID,23.625,VALID,97,VALID,0.595703,
2009-04-04, 01:19:05,VALID,999.345,VALID,0,VALID,93.3942,VALID,0,VALID,23.6445,VALID,103,VALID,0.761719,
2009-04-04, 01:20:05,VALID,999.303,VALID,0,VALID,93.3408,VALID,0,VALID,23.6232,VALID,107,VALID,0.660156,
2009-04-04, 01:21:05,VALID,999.295,VALID,0,VALID,93.4323,VALID,0,VALID,23.6427,VALID,109,VALID,0.551172,
2009-04-04, 01:22:05,VALID,999.288,VALID,0,VALID,93.4781,VALID,0,VALID,23.664,VALID,109,VALID,0.3625,
2009-04-04, 01:23:05,VALID,999.286,VALID,0,VALID,93.4934,VALID,0,VALID,23.664,VALID,109,VALID,0.319531,
2009-04-04, 01:24:05,VALID,999.298,VALID,0,VALID,93.4247,VALID,0,VALID,23.6622,VALID,109,VALID,0.516016,
2009-04-04, 01:25:05,VALID,999.307,VALID,0,VALID,93.356,VALID,0,VALID,23.664,VALID,102,VALID,0.572266,
2009-04-04, 01:26:05,VALID,999.303,VALID,0,VALID,93.4247,VALID,0,VALID,23.6835,VALID,85,VALID,0.569531,
2009-04-04, 01:27:05,VALID,999.299,VALID,0,VALID,93.2645,VALID,0,VALID,23.6835,VALID,85,VALID,0.472266,
2009-04-04, 01:28:05,VALID,999.311,VALID,0,VALID,93.0127,VALID,0,VALID,23.664,VALID,85,VALID,0.310547,
2009-04-04, 01:29:05,VALID,999.321,VALID,0,VALID,92.7838,VALID,0,VALID,23.625,VALID,85,VALID,0.242188,
2009-04-04, 01:30:05,VALID,999.292,VALID,0,VALID,92.8983,VALID,0,VALID,23.6054,VALID,85,VALID,0.188672,
2009-04-04, 01:31:05,VALID,999.303,VALID,0,VALID,93.028,VALID,0,VALID,23.5646,VALID,85,VALID,0.271484,
2009-04-04, 01:32:05,VALID,999.266,VALID,0,VALID,93.2111,VALID,0,VALID,23.5646,VALID,85,VALID,0.50625,
2009-04-04, 01:33:05,VALID,999.242,VALID,0,VALID,93.3255,VALID,0,VALID,23.5859,VALID,91,VALID,0.652344,
2009-04-04, 01:34:05,VALID,999.224,VALID,0,VALID,93.295,VALID,0,VALID,23.5859,VALID,91,VALID,0.647656,
2009-04-04, 01:35:05,VALID,999.193,VALID,0,VALID,93.2416,VALID,0,VALID,23.5859,VALID,93,VALID,0.680469,
2009-04-04, 01:36:05,VALID,999.187,VALID,0,VALID,93.2187,VALID,0,VALID,23.5859,VALID,104,VALID,0.741016,
2009-04-04, 01:37:05,VALID,999.196,VALID,0,VALID,93.2263,VALID,0,VALID,23.5859,VALID,131,VALID,0.914844,
2009-04-04, 01:38:05,VALID,999.2,VALID,0,VALID,93.3942,VALID,0,VALID,23.6054,VALID,145,VALID,1.26211,
2009-04-04, 01:39:05,VALID,999.19,VALID,0,VALID,93.4094,VALID,0,VALID,23.625,VALID,140,VALID,1.00664,
2009-04-04, 01:40:05,VALID,999.178,VALID,0,VALID,93.3484,VALID,0,VALID,23.625,VALID,136,VALID,0.677734,
2009-04-04, 01:41:05,VALID,999.15,VALID,0,VALID,93.3026,VALID,0,VALID,23.6445,VALID,136,VALID,0.469922,
2009-04-04, 01:42:05,VALID,999.128,VALID,0,VALID,93.2492,VALID,0,VALID,23.625,VALID,136,VALID,0.503906,
2009-04-04, 01:43:05,VALID,999.095,VALID,0,VALID,93.2568,VALID,0,VALID,23.6054,VALID,136,VALID,0.461719,
2009-04-04, 01:44:05,VALID,999.06,VALID,0,VALID,93.2797,VALID,0,VALID,23.6054,VALID,136,VALID,0.298438,
2009-04-04, 01:45:05,VALID,999.032,VALID,0,VALID,93.3484,VALID,0,VALID,23.625,VALID,136,VALID,0.323438,
2009-04-04, 01:46:05,VALID,999.002,VALID,0,VALID,93.295,VALID,0,VALID,23.6054,VALID,136,VALID,0.325391,
2009-04-04, 01:47:05,VALID,999.011,VALID,0,VALID,93.2568,VALID,0,VALID,23.6054,VALID,135,VALID,0.482422,
2009-04-04, 01:48:05,VALID,999.023,VALID,0,VALID,93.2797,VALID,0,VALID,23.5859,VALID,98,VALID,0.654297,
2009-04-04, 01:49:05,VALID,999.001,VALID,0,VALID,93.4247,VALID,0,VALID,23.625,VALID,90,VALID,0.66875,
2009-04-04, 01:50:05,VALID,998.984,VALID,0,VALID,93.4857,VALID,0,VALID,23.6445,VALID,90,VALID,0.576172,
2009-04-04, 01:51:05,VALID,998.979,VALID,0,VALID,93.3103,VALID,0,VALID,23.664,VALID,90,VALID,0.405469,
2009-04-04, 01:52:05,VALID,998.954,VALID,0,VALID,93.295,VALID,0,VALID,23.6622,VALID,90,VALID,0.301172,
2009-04-04, 01:53:05,VALID,998.942,VALID,0,VALID,93.2721,VALID,0,VALID,23.6817,VALID,90,VALID,0.327344,
2009-04-04, 01:54:05,VALID,998.925,VALID,0,VALID,93.1729,VALID,0,VALID,23.6817,VALID,90,VALID,0.395703,
2009-04-04, 01:55:05,VALID,998.881,VALID,0,VALID,92.7151,VALID,0,VALID,23.6036,VALID,90,VALID,0.357812,
2009-04-04, 01:56:05,VALID,998.873,VALID,0,VALID,92.6465,VALID,0,VALID,23.5061,VALID,90,VALID,0.255078,
2009-04-04, 01:57:05,VALID,998.828,VALID,0,VALID,92.8525,VALID,0,VALID,23.4866,VALID,90,VALID,0.341016,
2009-04-04, 01:58:05,VALID,998.821,VALID,0,VALID,93.1348,VALID,0,VALID,23.4653,VALID,244,VALID,0.899609,
2009-04-04, 01:59:05,VALID,998.812,VALID,0,VALID,93.3026,VALID,0,VALID,23.4866,VALID,234,VALID,1.08633,
2009-04-04, 02:00:05,VALID,998.769,VALID,0,VALID,93.4552,VALID,0.112286,VALID,23.5043,VALID,234,VALID,0.914453,
2009-04-04, 02:01:05,VALID,998.766,VALID,0,VALID,93.6154,VALID,0.112286,VALID,23.5433,VALID,241,VALID,0.828516,
2009-04-04, 02:02:05,VALID,998.765,VALID,0,VALID,93.6383,VALID,0.112286,VALID,23.6036,VALID,242,VALID,0.338281,
2009-04-04, 02:03:05,VALID,998.757,VALID,0,VALID,93.5926,VALID,0,VALID,23.5841,VALID,242,VALID,0.126953,
2009-04-04, 02:04:05,VALID,998.705,VALID,0,VALID,93.5163,VALID,0,VALID,23.5841,VALID,242,VALID,0.222266,
2009-04-04, 02:05:05,VALID,998.673,VALID,0,VALID,93.5315,VALID,0.112286,VALID,23.5841,VALID,242,VALID,0.242188,
2009-04-04, 02:06:05,VALID,998.651,VALID,0,VALID,93.4781,VALID,0.112286,VALID,23.5646,VALID,242,VALID,0.211328,
2009-04-04, 02:07:05,VALID,998.674,VALID,0,VALID,93.4171,VALID,0,VALID,23.5469,VALID,242,VALID,0.0597656,
2009-04-04, 02:08:05,VALID,998.644,VALID,0,VALID,93.4247,VALID,0,VALID,23.5274,VALID,242,VALID,0,
2009-04-04, 02:09:05,VALID,998.646,VALID,0,VALID,93.5315,VALID,0,VALID,23.5274,VALID,242,VALID,0.132031,
2009-04-04, 02:10:05,VALID,998.581,VALID,0,VALID,93.4628,VALID,0,VALID,23.5079,VALID,242,VALID,0.115625,
2009-04-04, 02:11:05,VALID,998.59,VALID,0,VALID,93.2645,VALID,0,VALID,23.4493,VALID,242,VALID,0.123438,
2009-04-04, 02:12:05,VALID,998.564,VALID,0,VALID,93.3866,VALID,0,VALID,23.4298,VALID,242,VALID,0,
2009-04-04, 02:13:05,VALID,998.572,VALID,0,VALID,93.5391,VALID,0,VALID,23.4103,VALID,242,VALID,0.191797,
2009-04-04, 02:14:05,VALID,998.562,VALID,0,VALID,93.8214,VALID,0,VALID,23.4298,VALID,242,VALID,0.432422,
2009-04-04, 02:15:05,VALID,998.592,VALID,0,VALID,94.0274,VALID,0,VALID,23.4688,VALID,69,VALID,0.721094,
2009-04-04, 02:16:05,VALID,998.568,VALID,0,VALID,93.8748,VALID,0,VALID,23.4688,VALID,70,VALID,0.858594,
2009-04-04, 02:17:05,VALID,998.593,VALID,0,VALID,93.7909,VALID,0,VALID,23.4688,VALID,79,VALID,0.914844,
2009-04-04, 02:18:05,VALID,998.614,VALID,0,VALID,93.501,VALID,0,VALID,23.4298,VALID,97,VALID,1.23008,
2009-04-04, 02:19:05,VALID,998.607,VALID,0,VALID,93.4247,VALID,0,VALID,23.4103,VALID,103,VALID,1.11836,
2009-04-04, 02:20:05,VALID,998.644,VALID,0,VALID,93.4705,VALID,0,VALID,23.3908,VALID,103,VALID,0.819141,
2009-04-04, 02:21:05,VALID,998.673,VALID,0,VALID,93.4323,VALID,0,VALID,23.35,VALID,101,VALID,0.746875,
2009-04-04, 02:22:05,VALID,998.694,VALID,0,VALID,93.6002,VALID,0,VALID,23.3713,VALID,90,VALID,0.762891,
2009-04-04, 02:23:05,VALID,998.724,VALID,0,VALID,93.7223,VALID,0,VALID,23.3713,VALID,75,VALID,0.976953,
2009-04-04, 02:24:05,VALID,998.743,VALID,0,VALID,93.6765,VALID,0,VALID,23.3305,VALID,62,VALID,0.822656,
2009-04-04, 02:25:05,VALID,998.773,VALID,0,VALID,93.5773,VALID,0,VALID,23.3323,VALID,49,VALID,0.860156,
2009-04-04, 02:26:05,VALID,998.768,VALID,0,VALID,93.5849,VALID,0,VALID,23.2932,VALID,42,VALID,1.01563,
2009-04-04, 02:27:05,VALID,998.752,VALID,0,VALID,93.6612,VALID,0,VALID,23.2737,VALID,42,VALID,0.809766,
2009-04-04, 02:28:05,VALID,998.753,VALID,0,VALID,93.7223,VALID,0,VALID,23.2737,VALID,37,VALID,0.885156,
2009-04-04, 02:29:05,VALID,998.766,VALID,0,VALID,93.707,VALID,0,VALID,23.2542,VALID,35,VALID,0.8625,
2009-04-04, 02:30:05,VALID,998.778,VALID,0,VALID,93.852,VALID,0,VALID,23.2542,VALID,35,VALID,0.917188,
2009-04-04, 02:31:05,VALID,998.755,VALID,0,VALID,93.9664,VALID,0,VALID,23.2737,VALID,32,VALID,0.891016,
2009-04-04, 02:32:05,VALID,998.699,VALID,0,VALID,93.9206,VALID,0,VALID,23.2737,VALID,26,VALID,0.837891,
2009-04-04, 02:33:05,VALID,998.672,VALID,0,VALID,94.0656,VALID,0,VALID,23.2737,VALID,22,VALID,0.937891,
2009-04-04, 02:34:05,VALID,998.697,VALID,0,VALID,94.0503,VALID,0,VALID,23.2932,VALID,12,VALID,0.961328,
2009-04-04, 02:35:05,VALID,998.674,VALID,0,VALID,94.1037,VALID,0,VALID,23.3127,VALID,9,VALID,0.816406,
2009-04-04, 02:36:05,VALID,998.662,VALID,0,VALID,94.1266,VALID,0,VALID,23.3305,VALID,9,VALID,0.764063,
2009-04-04, 02:37:05,VALID,998.649,VALID,0,VALID,94.0351,VALID,0,VALID,23.3323,VALID,9,VALID,0.567578,
2009-04-04, 02:38:05,VALID,998.702,VALID,0,VALID,93.9283,VALID,0,VALID,23.3127,VALID,9,VALID,0.575,
2009-04-04, 02:39:05,VALID,998.682,VALID,0,VALID,93.9206,VALID,0,VALID,23.3127,VALID,9,VALID,0.686719,
2009-04-04, 02:40:05,VALID,998.74,VALID,0,VALID,93.9969,VALID,0,VALID,23.2932,VALID,12,VALID,0.858203,
2009-04-04, 02:41:05,VALID,998.743,VALID,0,VALID,93.8825,VALID,0,VALID,23.2737,VALID,25,VALID,0.940625,
2009-04-04, 02:42:05,VALID,998.809,VALID,0,VALID,93.7528,VALID,0,VALID,23.2542,VALID,32,VALID,1.00391,
2009-04-04, 02:43:05,VALID,998.805,VALID,0,VALID,93.913,VALID,0,VALID,23.2347,VALID,50,VALID,0.845312,
2009-04-04, 02:44:05,VALID,998.83,VALID,0,VALID,93.9511,VALID,0,VALID,23.2542,VALID,66,VALID,0.900781,
2009-04-04, 02:45:05,VALID,998.819,VALID,0,VALID,93.9588,VALID,0,VALID,23.2542,VALID,73,VALID,0.787109,
2009-04-04, 02:46:05,VALID,998.807,VALID,0,VALID,93.8901,VALID,0,VALID,23.2347,VALID,78,VALID,0.576172,
2009-04-04, 02:47:05,VALID,998.817,VALID,0,VALID,93.7833,VALID,0,VALID,23.2152,VALID,82,VALID,0.537891,
2009-04-04, 02:48:05,VALID,998.78,VALID,0,VALID,93.7909,VALID,0,VALID,23.2152,VALID,82,VALID,0.632813,
2009-04-04, 02:49:05,VALID,998.776,VALID,0,VALID,93.9054,VALID,0,VALID,23.2152,VALID,82,VALID,0.611328,
2009-04-04, 02:50:05,VALID,998.755,VALID,0,VALID,93.9817,VALID,0,VALID,23.2347,VALID,82,VALID,0.407813,
2009-04-04, 02:51:05,VALID,998.754,VALID,0,VALID,93.974,VALID,0,VALID,23.2542,VALID,82,VALID,0.347266,
2009-04-04, 02:52:04,VALID,998.721,VALID,0,VALID,93.9817,VALID,0,VALID,23.2542,VALID,82,VALID,0.187109,
2009-04-04, 02:53:04,VALID,998.728,VALID,0,VALID,93.9206,VALID,0,VALID,23.2329,VALID,82,VALID,0.1,
2009-04-04, 02:54:04,VALID,998.759,VALID,0,VALID,93.8291,VALID,0,VALID,23.2152,VALID,82,VALID,0,
2009-04-04, 02:55:04,VALID,998.771,VALID,0,VALID,93.8367,VALID,0,VALID,23.2152,VALID,82,VALID,0,
2009-04-04, 02:56:04,VALID,998.784,VALID,0,VALID,93.8825,VALID,0,VALID,23.1957,VALID,82,VALID,0.261719,
2009-04-04, 02:57:04,VALID,998.776,VALID,0,VALID,93.9054,VALID,0,VALID,23.1957,VALID,82,VALID,0.226563,
2009-04-04, 02:58:04,VALID,998.784,VALID,0,VALID,93.9969,VALID,0,VALID,23.2347,VALID,82,VALID,0.303516,
2009-04-04, 02:59:04,VALID,998.799,VALID,0,VALID,94.0503,VALID,0,VALID,23.2347,VALID,82,VALID,0.096875,
2009-04-04, 03:00:04,VALID,998.813,VALID,0,VALID,94.0656,VALID,0,VALID,23.2347,VALID,82,VALID,0,
2009-04-04, 03:01:04,VALID,998.808,VALID,0,VALID,94.0351,VALID,0,VALID,23.2347,VALID,82,VALID,0,
2009-04-04, 03:02:04,VALID,998.827,VALID,0,VALID,94.0503,VALID,0,VALID,23.2542,VALID,82,VALID,0,
2009-04-04, 03:03:04,VALID,998.833,VALID,0,VALID,93.9969,VALID,0,VALID,23.2347,VALID,82,VALID,0,
2009-04-04, 03:04:04,VALID,998.824,VALID,0,VALID,93.9054,VALID,0,VALID,23.2152,VALID,82,VALID,0,
2009-04-04, 03:05:04,VALID,998.856,VALID,0,VALID,93.9435,VALID,0,VALID,23.1762,VALID,82,VALID,0,
2009-04-04, 03:06:04,VALID,998.865,VALID,0,VALID,94.0503,VALID,0,VALID,23.1762,VALID,82,VALID,0.151562,
2009-04-04, 03:07:04,VALID,998.887,VALID,0,VALID,94.2792,VALID,0,VALID,23.1957,VALID,82,VALID,0.569531,
2009-04-04, 03:08:04,VALID,998.91,VALID,0,VALID,94.3555,VALID,0,VALID,23.2347,VALID,82,VALID,0.625391,
2009-04-04, 03:09:04,VALID,998.909,VALID,0,VALID,94.2182,VALID,0,VALID,23.2347,VALID,78,VALID,0.746094,
2009-04-04, 03:10:04,VALID,998.899,VALID,0,VALID,94.3631,VALID,0,VALID,23.2542,VALID,80,VALID,0.587891,
2009-04-04, 03:11:04,VALID,998.864,VALID,0,VALID,94.4242,VALID,0,VALID,23.2932,VALID,80,VALID,0.490625,
2009-04-04, 03:12:04,VALID,998.879,VALID,0,VALID,94.2334,VALID,0,VALID,23.3127,VALID,82,VALID,0.482812,
2009-04-04, 03:13:04,VALID,998.904,VALID,0,VALID,94.1877,VALID,0,VALID,23.3127,VALID,86,VALID,0.405078,
2009-04-04, 03:14:04,VALID,998.927,VALID,0,VALID,94.1648,VALID,0,VALID,23.3323,VALID,86,VALID,0.405859,
2009-04-04, 03:15:04,VALID,998.979,VALID,0,VALID,94.119,VALID,0,VALID,23.3323,VALID,86,VALID,0.397656,
2009-04-04, 03:16:04,VALID,999.004,VALID,0,VALID,94.1114,VALID,0,VALID,23.2915,VALID,86,VALID,0.528906,
2009-04-04, 03:17:04,VALID,999.033,VALID,0,VALID,94.0732,VALID,0,VALID,23.3323,VALID,78,VALID,0.703906,
2009-04-04, 03:18:04,VALID,999.051,VALID,0,VALID,94.0503,VALID,0,VALID,23.3305,VALID,66,VALID,0.827734,
2009-04-04, 03:19:04,VALID,999.035,VALID,0,VALID,93.8443,VALID,0,VALID,23.311,VALID,66,VALID,0.788281,
2009-04-04, 03:20:04,VALID,999.04,VALID,0,VALID,93.6078,VALID,0,VALID,23.2932,VALID,54,VALID,0.749219,
2009-04-04, 03:21:04,VALID,999.024,VALID,0,VALID,93.501,VALID,0,VALID,23.2542,VALID,53,VALID,0.66875,
2009-04-04, 03:22:04,VALID,999.048,VALID,0,VALID,93.6994,VALID,0,VALID,23.2152,VALID,53,VALID,0.757422,
2009-04-04, 03:23:04,VALID,999.036,VALID,0,VALID,93.6841,VALID,0,VALID,23.2152,VALID,53,VALID,0.583203,
2009-04-04, 03:24:04,VALID,999.072,VALID,0,VALID,93.6612,VALID,0,VALID,23.1957,VALID,53,VALID,0.46875,
2009-04-04, 03:25:04,VALID,999.116,VALID,0,VALID,93.6307,VALID,0,VALID,23.1762,VALID,53,VALID,0.629687,
2009-04-04, 03:26:04,VALID,999.112,VALID,0,VALID,93.7757,VALID,0,VALID,23.1762,VALID,53,VALID,0.525,
2009-04-04, 03:27:04,VALID,999.108,VALID,0,VALID,93.8138,VALID,0,VALID,23.1566,VALID,53,VALID,0.460547,
2009-04-04, 03:28:04,VALID,999.134,VALID,0,VALID,93.7909,VALID,0,VALID,23.1762,VALID,54,VALID,0.322656,
2009-04-04, 03:29:04,VALID,999.133,VALID,0,VALID,93.6536,VALID,0,VALID,23.1159,VALID,54,VALID,0.0203125,
2009-04-04, 03:30:04,VALID,999.132,VALID,0,VALID,93.6917,VALID,0,VALID,23.1176,VALID,54,VALID,0.0292969,
2009-04-04, 03:31:04,VALID,999.102,VALID,0,VALID,93.6231,VALID,0,VALID,23.0573,VALID,54,VALID,0,
2009-04-04, 03:32:04,VALID,999.104,VALID,0,VALID,93.5849,VALID,0,VALID,23.0591,VALID,54,VALID,0,
2009-04-04, 03:33:04,VALID,999.046,VALID,0,VALID,93.6841,VALID,0,VALID,23.0201,VALID,54,VALID,0,
2009-04-04, 03:34:04,VALID,999.076,VALID,0,VALID,93.8214,VALID,0,VALID,23.0396,VALID,103,VALID,0.401563,
2009-04-04, 03:35:04,VALID,999.081,VALID,0,VALID,94.0656,VALID,0,VALID,23.0786,VALID,152,VALID,0.713281,
2009-04-04, 03:36:04,VALID,999.056,VALID,0,VALID,94.0732,VALID,0,VALID,23.0981,VALID,144,VALID,1.05625,
2009-04-04, 03:37:04,VALID,999.071,VALID,0,VALID,94.1953,VALID,0,VALID,23.1176,VALID,168,VALID,1.11367,
2009-04-04, 03:38:04,VALID,999.064,VALID,0,VALID,94.2105,VALID,0,VALID,23.1762,VALID,160,VALID,1.41016,
2009-04-04, 03:39:04,VALID,999.067,VALID,0,VALID,94.0427,VALID,0,VALID,23.2152,VALID,155,VALID,1.00234,
2009-04-04, 03:40:04,VALID,999.107,VALID,0,VALID,93.8214,VALID,0,VALID,23.2737,VALID,150,VALID,0.988672,
2009-04-04, 03:41:04,VALID,999.142,VALID,0,VALID,93.6307,VALID,0,VALID,23.3127,VALID,149,VALID,0.773047,
2009-04-04, 03:42:04,VALID,999.176,VALID,0,VALID,93.4628,VALID,0,VALID,23.3518,VALID,135,VALID,0.332422,
2009-04-04, 03:43:04,VALID,999.187,VALID,0,VALID,93.2568,VALID,0,VALID,23.3518,VALID,135,VALID,0.318359,
2009-04-04, 03:44:04,VALID,999.218,VALID,0,VALID,93.1271,VALID,0,VALID,23.3305,VALID,97,VALID,0.342578,
2009-04-04, 03:45:04,VALID,999.218,VALID,0,VALID,92.9288,VALID,0,VALID,23.3713,VALID,97,VALID,0.332422,
2009-04-04, 03:46:04,VALID,999.237,VALID,0,VALID,92.8525,VALID,0,VALID,23.3518,VALID,97,VALID,0.301953,